Flag for U.S.A. Weather past 2 weeks in New Haven, Connecticut, U.S.A.

Now
73 °F

Partly sunny.


Feels Like: 72 °F
Forecast: 65 / 79 °F
Wind: 8 mph from South

Location: Tweed-New Haven Airport

Current Time: Jul 28, 2014 at 9:09:29 AM

Latest Report: Jul 28, 2014 at 7:53 AM


Visibility: 10 mi

Pressure: 29.56 "Hg

Humidity: 84%

Dew point: 68 °F

Location of New HavenLocation

Historic Weather in New Haven — Graph

°F

New Haven temperature yesterday

Maximum temperature yesterday: 83 °F (at 3:53 PM)
Minimum temperature yesterday: 73 °F (at 1:53 AM)
Average temperature yesterday: 77 °F

Past Weeks' High & Low Weather Summary

 TemperatureHumidityPressure
High85 °F (Jul 23, 2:53 PM)94% (Jul 14, 9:00 PM)30.26 "Hg (Jul 14, 9:00 PM)
Low62 °F (Jul 21, 4:53 AM)31% (Jul 18, 1:53 PM)29.56 "Hg (Jul 28, 7:53 AM)
Average74 °F71%29.97 "Hg
* Reported Jul 13 7:53 AM — Jul 28 7:53 AM, New Haven, Weather by CustomWeather, © 2014

Note: Actual official high and low records may vary slightly from our data, if they occured in-between our weather recording intervals... More about our weather records

Advertising

New Haven weather history for previous 24 hours

 ConditionsComfort  
Time TempWeatherWind HumidityBarometerVisibility
7:53 AM
Jul 28
73 °FPartly sunny.8 mph84%29.56 "Hg10 mi
6:53 AM73 °FPartly sunny.8 mph84%29.56 "Hg10 mi
5:53 AM74 °FLight rain. Passing clouds.8 mph88%29.56 "Hg8 mi
4:53 AM75 °FRain. Fog.8 mph88%29.58 "Hg3 mi
4:00 AM75 °FPassing clouds.3 mph89%29.58 "Hg10 mi
2:53 AM76 °FPassing clouds.5 mph85%29.59 "Hg9 mi
1:53 AM75 °FPassing clouds.3 mph88%29.63 "Hg8 mi
12:53 AM75 °FClear.5 mph85%29.65 "Hg9 mi
11:53 PM
Jul 27
74 °FClear.No wind88%29.67 "Hg10 mi
10:53 PM75 °FClear.No wind82%29.69 "Hg10 mi
9:53 PM75 °FClear.No wind82%29.70 "Hg10 mi
8:53 PM77 °FSunny.3 mph79%29.69 "Hg10 mi
7:53 PM78 °FSunny.6 mph76%29.68 "Hg10 mi
6:53 PM80 °FSunny.7 mph74%29.67 "Hg10 mi
5:53 PM81 °FSunny.8 mph74%29.69 "Hg10 mi
4:53 PM82 °FPassing clouds.9 mph72%29.70 "Hg10 mi
3:53 PM83 °FScattered clouds.8 mph68%29.71 "Hg10 mi
2:53 PM82 °FScattered clouds.9 mph70%29.72 "Hg10 mi
1:53 PM80 °FPartly sunny.6 mph71%29.73 "Hg10 mi
12:53 PM77 °FLight rain. Broken clouds.3 mph79%29.74 "Hg10 mi
11:53 AM79 °FBroken clouds.8 mph72%29.76 "Hg10 mi
10:53 AM77 °FCloudy.9 mph82%29.78 "Hg10 mi
9:53 AM76 °FMostly cloudy.7 mph82%29.80 "Hg10 mi
Weather by CustomWeather, © 2014

See weather overviewHow to use our weather pages